Regional Weather Roundup
Issued by NWS

Home | Current Version | Previous Version | Text Only | Print | Product List | Glossary Off
Versions: 1 2 3 4 5 6 7 8 9 10 11 12 13 14 15 16 17 18 19 20 21 22 23 24 25 26 27 28 29 30 31 32 33 34 35 36 37 38 39 40 41 42 43 44 45 46 47 48 49 50

000
ASUS43 KLOT 280606
RWRIL

ILLINOIS REGIONAL WEATHER ROUNDUP
NATIONAL WEATHER SERVICE CHICAGO/ROMEOVILLE IL
1200 AM CST SUN DEC 28 2014

NOTE: "FAIR" INDICATES FEW OR NO CLOUDS BELOW 12,000 FEET WITH NO
SIGNIFICANT WEATHER AND/OR OBSTRUCTIONS TO VISIBILITY.

* THESE STATIONS ARE NOT UNDER NWS QUALITY CONTROL. THEY ALSO MAY NOT
  REPORT WEATHER SUCH AS PRECIPITATION OR FOG.

ILZ001-002-007-009-015-016-024-280700-
NORTHWEST ILLINOIS

CITY           SKY/WX    TMP DP  RH WIND       PRES   REMARKS
MOLINE         CLEAR     24  18  77 W15       30.19S WCI  11
6HR MIN TEMP:  24; 6HR MAX TEMP:  32;

STERLING*      CLEAR     25  18  74 NW13      30.15F WCI  13
SAVANNA*       CLOUDY    25  19  79 W8        30.16F WCI  16
$$

ILZ003-004-008-010-011-017-018-280700-
NORTH CENTRAL ILLINOIS

CITY           SKY/WX    TMP DP  RH WIND       PRES   REMARKS
ROCKFORD       CLOUDY    28  21  75 W12       30.14F WCI  18
6HR MIN TEMP:  28; 6HR MAX TEMP:  32;

FREEPORT*      CLOUDY    25  20  82 W12       30.14F WCI  14
ROCHELLE*      CLOUDY    27  22  82 NW16      30.14S WCI  14
DE KALB*       CLOUDY    27  24  86 W18       30.11F WCI  14
PERU*          CLOUDY    29  24  81 NW10      30.17R WCI  19
$$

ILZ005-006-012>014-019>023-280700-
NORTHEAST ILLINOIS

CITY           SKY/WX    TMP DP  RH WIND       PRES   REMARKS
CHICAGO-OHARE  CLOUDY    31  24  75 W9        30.09F WCI  23
6HR MIN TEMP:  31; 6HR MAX TEMP:  34;

CHICAGO-MIDWAY CLOUDY    33  25  72 NW12      30.10F WCI  24
6HR MIN TEMP:  33; 6HR MAX TEMP:  36;

AURORA         CLOUDY    31  25  78 W15       30.12S WCI  20
6HR MIN TEMP:  29; 6HR MAX TEMP:  34;

LANSING*       CLOUDY    32  26  77 NW9       30.10F WCI  24
JOLIET*        CLOUDY    29  26  87 W8        30.12F WCI  22
WAUKEGAN       CLOUDY    30  23  75 W8G20     30.07F WCI  22
6HR MIN TEMP:  30; 6HR MAX TEMP:  34;

DUPAGE AIRPORT CLOUDY    31  23  72 NW10      30.09F WCI  22
6HR MIN TEMP:  30; 6HR MAX TEMP:  34;

KANKAKEE*      CLOUDY    31  28  88 W9        30.13S WCI  23
WHEELING       CLOUDY    31  23  72 NW9       30.10F WCI  23
6HR MIN TEMP:  31; 6HR MAX TEMP:  34;

MORRIS*        MOCLDY    29  27  91 NW12      30.13S WCI  19
ROMEOVILLE*    CLOUDY    30  27  88 NW6       30.11F WCI  24
NORTHERLY ISL    N/A     32  24  73 W9          N/A  WCI  24
$$

LMZ740>746-280700-
SOUTHERN LAKE MICHIGAN

STATION/POSITION SKY/WX   TEMP    WIND        PRES    VSBY  WAVE
                          AIR SEA DIR/SP/G                  HT/PER
                          (F)     (DEG/KT/KT) (MB)    (MI)  (FT/S)
WAUKEGAN HARBOR            31     290/ 12/ 21   N/A
HARRISON CRIB              32     280/ 15/ 19   N/A
BURNHAM HARBOR             32     330/  6/ 14   N/A
CALUMET HARBOR             32     310/  8/ 12 1017.8F
MICHIGAN CITY              35     280/ 13/ 16   N/A
$$

ILZ025>027-034>036-040-047-049-050-058-095>099-280700-
WEST-CENTRAL ILLINOIS

CITY           SKY/WX    TMP DP  RH WIND       PRES   REMARKS
QUINCY         CLOUDY    29  22  75 NW13      30.21S WCI  19
GALESBURG*     CLOUDY    27  22  83 W14       30.18F WCI  15
MACOMB*        CLOUDY    28  24  82 W13       30.22F WCI  18
JACKSONVILLE*  CLOUDY    32  27  80 NW7G16    30.21S WCI  26
PITTSFIELD*    CLOUDY    31  25  76 NW9G16    30.23R WCI  23
$$

ILZ028>032-037-038-041>044-048-051>054-059>061-280700-
CENTRAL ILLINOIS

CITY           SKY/WX    TMP DP  RH WIND       PRES   REMARKS
PONTIAC        CLOUDY    31  27  84 NW17      30.16R WCI  19
BLOOMINGTON    CLOUDY    30  26  85 NW13      30.16S WCI  20
DECATUR        CLOUDY    32  26  78 NW9       30.17S WCI  24
PEORIA         CLOUDY    30  21  69 NW9       30.19S WCI  22
6HR MIN TEMP:  30; 6HR MAX TEMP:  35;

LACON*         CLOUDY    28  22  78 W9        30.18R WCI  20
LINCOLN*       CLOUDY    32  26  79 W5        30.20R WCI  27
SPRINGFIELD    CLOUDY    32  25  75 NW10      30.19S WCI  24
6HR MIN TEMP:  32; 6HR MAX TEMP:  36;

TAYLORVILLE    CLOUDY    32  28  86 NW9       30.19S WCI  24
$$

ILZ033-039-045-046-055>057-062-063-280700-
EAST-CENTRAL ILLINOIS

CITY           SKY/WX    TMP DP  RH WIND       PRES   REMARKS
CHAMPAIGN      CLEAR     30  27  88 NW9       30.15S WCI  22
DANVILLE*      MOCLDY    31  28  90 NW7       30.11S WCI  24
RANTOUL*       PTCLDY    32  28  86 W7        30.14S WCI  26
MATTOON        CLOUDY    32  28  85 NW17      30.14F WCI  21
PARIS*         CLOUDY    33  31  94 NW7       30.14F WCI  26
$$

ILZ079-100>102-280700-
SOUTHWEST ILLINOIS

CITY           SKY/WX    TMP DP  RH WIND       PRES   REMARKS
ALTON          CLOUDY    33  27  77 NW7       30.21S WCI  27
BELLEVILLE     CLOUDY    34  32  90 NW13      30.20S WCI  25
CAHOKIA*       CLOUDY    35  28  75 N10       30.22R WCI  27
SPARTA*        CLOUDY    35  32  90 NW7       30.21S WCI  29
$$

ILZ064>066-069>071-074>076-080>082-084>086-088>090-092>094-280700-
SOUTH-CENTRAL ILLINOIS

CITY           SKY/WX    TMP DP  RH WIND       PRES   REMARKS
CARBONDALE     CLOUDY    37  34  89 NW8       30.18F WCI  31
6HR MIN TEMP:  37; 6HR MAX TEMP:  40; 6HR PCP:  0.27;

CAIRO*         CLOUDY    41  38  90 N8        30.15F
EFFINGHAM*     CLOUDY    33  28  79 NW10      30.18S WCI  25
MARION         CLOUDY    37  34  87 NW6       30.17F WCI  33
MT. VERNON     CLOUDY    36  30  80 NW3       30.18S
CENTRALIA*     CLOUDY    35  31  83 NW12      30.18R WCI  27
SALEM*         CLOUDY    37  33  85 NW10      30.18S WCI  30
METROPOLIS*    CLOUDY    39  39 100 N12       30.14F WCI  32
$$

ILZ067-068-072-073-078-083-087-091-280700-
SOUTHEAST ILLINOIS

CITY           SKY/WX    TMP DP  RH WIND       PRES   REMARKS
LAWRENCEVILLE  CLOUDY    37  35  92 NW12      30.15R WCI  29
FLORA*         CLOUDY    36  33  90 NW12      30.17S WCI  27
FAIRFIELD*     CLOUDY    37  34  90 NW3       30.16R
HARRISBURG*    CLOUDY    38  37  95 NW8       30.17S WCI  32
ROBINSON*      CLOUDY    35  32  89 NW10      30.16S WCI  27
CARMI*         CLOUDY    39  39  99 NW13      30.15S WCI  32
$$

ABBREVIATIONS USED IN REMARKS
   TC - TEMPERATURE IN CELSIUS
  WCI - WIND CHILL INDEX
   HX - HEAT INDEX
  VSB - VISIBILITY
$$




USA.gov is the U.S. government's official web portal to all federal, state and local government web resources and services.